Tracking 18843 objects as of 20-November-2017
HD Live streaming from Space Station
objects crossing your sky now

NADEZHDA 1

Track NADEZHDA 1 now!
10-day predictions
NADEZHDA 1 is classified as:


NORAD ID: 20103
Int'l Code: 1989-050A
Perigee: 963.1 km
Apogee: 1,017.7 km
Inclination: 83.0 °
Period: 104.8 minutes
Semi major axis: 7361 km
RCS: 2.0999 m2 (large)
Launch date: July 4, 1989
Source: Commonwealth of Independent States (former USSR) (CIS)
Launch site: PLESETSK MISSILE AND SPACE COMPLEX (PKMTR)

Search and rescue; part of COSPAS/SARSAT fleet.
aabbcc
Your satellite tracking list
Your tracking list is empty




NASA's NSSDC Master Catalog

Two Line Element Set (TLE):
1 20103U 89050A   17323.49837043 +.00000032 +00000-0 +17742-4 0  9992
2 20103 082.9604 094.1052 0037124 200.8870 229.5032 13.74556489423194
Source of the keplerian elements: AFSPC